Regional Weather Roundup
Issued by NWS Cleveland, OH

Home | Current Version | Previous Version | Graphics & Text | Print | Product List | Glossary On
Versions: 1 2 3 4 5 6 7 8 9 10 11 12 13 14 15 16 17 18 19 20 21 22 23 24 25 26 27 28 29 30 31 32 33 34 35 36 37 38 39 40 41 42 43 44 45 46 47 48 49 50
000
ASUS41 KCLE 031810
RWRCLE
OHIO REGIONAL WEATHER ROUNDUP
NATIONAL WEATHER SERVICE CLEVELAND, OH
100 PM EST TUE MAR 03 2015

NOTE: "FAIR" INDICATES FEW OR NO CLOUDS BELOW 12,000 FEET WITH NO
SIGNIFICANT WEATHER AND/OR OBSTRUCTIONS TO VISIBILITY.

OHZ001>008-015>018-024>027-034-035-043-044-031900-
   NORTHWEST OHIO

CITY           SKY/WX    TMP DP  RH WIND       PRES   REMARKS
DEFIANCE       FRZ RAIN  31  28  89 S15G21    29.76F FOG     WCI  20
FINDLAY        LGT SNOW  32  28  85 S18       29.79F FOG     WCI  20
TOLEDO EXPRESS FRZ RAIN  29  26  89 S9G17     29.77F FOG     WCI  20
TOLEDO EXEC    CLOUDY    32  25  75 S17       29.81F WCI  21
LIMA           MIX PCPN  33  29  85 S18       29.79F FOG     WCI  22
$$

OHZ009>014-019>023-028>033-038-089-031900-
   NORTHEAST OHIO

CITY           SKY/WX    TMP DP  RH WIND       PRES   REMARKS
CLE-HOPKINS    FRZ RAIN  29  22  75 S10       29.90F WCI  20
CLE-LAKEFRONT  FRZ RAIN  30  20  66 S10       29.88F WCI  21
CUY CO. ARPT   CLOUDY    28  21  74 SE16      29.87F WCI  17
LORAIN-ELYRIA  FRZ RAIN  29  22  75 S21       29.83F WCI  16
ASHTABULA      FRZ RAIN  27  22  81 SE14      29.89F WCI  16
AKRON-CANTON   FRZ RAIN  31  20  63 S13       29.87F WCI  21
WOOSTER        FRZ RAIN  30  22  72 S13       29.86F WCI  20
MANSFIELD      CLOUDY    31  25  78 SE22      29.81F WCI  18
YOUNGSTOWN     FRZ RAIN  27  19  72 SE14      29.88F FOG     WCI  16
$$

OHZ042-051>053-060>062-070>072-077>081-031900-
  SOUTHWEST OHIO

CITY           SKY/WX    TMP DP  RH WIND       PRES   REMARKS
CINC-COVINGTON LGT RAIN  39  37  92 S15G21    29.86F FOG
CINC-LUNKEN    LGT RAIN  35  34  96 S8        29.90F FOG     WCI  29
HAMILTON       LGT RAIN  37  36  96 S5        29.87F FOG
DAYTON         CLOUDY    34  32  92 S15       29.83F FOG     WCI  24
WRIGHT-PAT AFB LGT RAIN  34  33  95 S9        29.84F FOG     WCI  27
DAYTON GENERAL LGT SNOW  36  34  92 S18       29.82F FOG
WILMINGTON     LGT RAIN  35  33  92 S16       29.84F FOG     WCI  25
$$

OHZ036-037-039>041-045>050-054>059-063>069-073>076-082>088-031900-
  CENTRAL AND SOUTHEAST OHIO

CITY           SKY/WX    TMP DP  RH WIND       PRES   REMARKS
COLUMBUS       RAIN      34  28  80 S8G16     29.88F WCI  27
OSU AIRPORT    LGT RAIN  32  28  85 S12       29.86F FOG     WCI  23
BOLTON FIELD   RAIN      32  28  86 SE17      29.86F WCI  21
RICKENBACK AFB MIX PCPN  33  29  87 S13       29.87F WCI  24
NEWARK         CLOUDY    35  27  72 S10       29.87F WCI  27
MARION         MIX PCPN  32  27  81 S21       29.82F WCI  20
LANCASTER      MIX PCPN  34  29  82 S9        29.88F WCI  27
ZANESVILLE     LGT RAIN  34  26  72 S9        29.90F WCI  27
NEW PHILLY     LGT RAIN  36  21  54 S8        29.91F
$$


USA.gov is the U.S. government's official web portal to all federal, state and local government web resources and services.